Weather History for New Delhi, India

Change the Weather History Date:

Friday, November 8, 2013

  Actual Average Record
Temperature  
Mean Temperature 68 °F -  
Max Temperature 77 °F 77 °F 93 °F (2000)
Min Temperature 60 °F 54 °F 57 °F (2004)
Cooling Degree Days 4    
Growing Degree Days 18 (Base 50)    
Moisture  
Dew Point 57 °F    
Average Humidity 72    
Maximum Humidity 88    
Minimum Humidity 47    
Precipitation  
Precipitation 0.00 in - - ()
Sea Level Pressure  
Sea Level Pressure 30.00 in    
Wind  
Wind Speed 3 mph ()    
Max Wind Speed 7 mph    
Max Gust Speed -    
Visibility 0.7 miles    
Events Fog    
Averages and records for this station are not official NWS values.
T = Trace of Precipitation, MM = Missing Value Source: Averaged Metar Reports

Daily Weather History Graph

Daily Weather History Graph

Search for Another Location

Airport:

Trip Planner

Search our weather history database for the weather conditions in past years. The results will help you decide how hot, cold, wet, or windy it might be!

Date:

Astronomy

Nov. 08, 2013 Rise Set
Actual Time 6:38 AM IST 5:31 PM IST
Civil Twilight 6:13 AM IST 5:56 PM IST
Nautical Twilight 5:45 AM IST 6:24 PM IST
Astronomical Twilight 5:17 AM IST 6:52 PM IST
Moon 11:11 AM IST (11/8) 10:21 PM IST (11/8)
Length of Visible Light 11h 42m
Length of Day
10h 53m
Waxing Crescent, 28% of the Moon is Illuminated
Nov 8
Waxing Crescent
Nov 10
First Quarter
Nov 17
Full
Nov 26
Last Quarter
Dec 3
New

Hourly Weather History & Observations

Time (IST) Temp. Dew Point Humidity Pressure Visibility Wind Dir Wind Speed Gust Speed Precip Events Conditions
12:30 AM 64.4 °F 60.8 °F 88% 30.01 in 0.5 mi Calm Calm - N/A Fog Shallow Fog
1:00 AM 64.4 °F 60.8 °F 88% 29.98 in 0.5 mi North 4.6 mph - N/A Fog Shallow Fog
1:30 AM 64.4 °F 60.8 °F 88% 29.98 in 0.5 mi North 5.8 mph - N/A Fog Shallow Fog
2:00 AM 62.6 °F 59.0 °F 88% 29.98 in 0.5 mi NNE 5.8 mph - N/A Fog Shallow Fog
2:30 AM 62.6 °F 59.0 °F 88% 29.98 in 0.4 mi NNE 5.8 mph - N/A Fog Shallow Fog
3:00 AM 62.6 °F 59.0 °F 88% 29.98 in 0.4 mi NNE 5.8 mph - N/A Fog Shallow Fog
3:30 AM 62.6 °F 59.0 °F 88% 29.98 in 0.4 mi North 3.5 mph - N/A Fog Shallow Fog
4:00 AM 60.8 °F 55.4 °F 82% 29.98 in 0.4 mi NE 5.8 mph - N/A Fog Shallow Fog
4:30 AM 62.6 °F 55.4 °F 77% 29.98 in 0.4 mi ENE 3.5 mph - N/A Fog Shallow Fog
5:00 AM 60.8 °F 55.4 °F 82% 29.98 in 0.4 mi ENE 4.6 mph - N/A Fog Shallow Fog
5:30 AM 60.8 °F 55.4 °F 82% 29.98 in 0.4 mi ENE 3.5 mph - N/A Fog Shallow Fog
6:00 AM 60.8 °F 55.4 °F 82% 30.01 in 0.4 mi Calm Calm - N/A Fog Shallow Fog
6:30 AM 60.8 °F 55.4 °F 82% 30.01 in 0.4 mi Calm Calm - N/A Fog Shallow Fog
7:00 AM 60.8 °F 55.4 °F 82% 30.01 in 0.4 mi Calm Calm - N/A Fog Shallow Fog
7:30 AM 62.6 °F 55.4 °F 77% 30.01 in 0.4 mi Calm Calm - N/A Fog Shallow Fog
8:00 AM 62.6 °F 55.4 °F 77% 30.01 in 0.4 mi Calm Calm - N/A Fog Shallow Fog
9:00 AM 66.2 °F 57.2 °F 73% 30.04 in 0.6 mi Calm Calm - N/A   Smoke
9:30 AM 68.0 °F 57.2 °F 68% 30.06 in 0.6 mi West 3.5 mph - N/A   Smoke
10:00 AM 68.0 °F 57.2 °F 68% 30.06 in 0.6 mi West 3.5 mph - N/A   Smoke
10:30 AM 69.8 °F 57.2 °F 64% 30.06 in 0.6 mi SSE 6.9 mph - N/A   Smoke
11:00 AM 69.8 °F 57.2 °F 64% 30.06 in 0.6 mi SSE 6.9 mph - N/A   Smoke
11:30 AM 69.8 °F 57.2 °F 64% 30.04 in 0.6 mi SSE 6.9 mph - N/A   Smoke
12:00 PM 71.6 °F 57.2 °F 60% 30.01 in 0.7 mi SE 4.6 mph - N/A   Smoke
12:30 PM 71.6 °F 57.2 °F 60% 30.01 in 0.7 mi ESE 4.6 mph - N/A   Smoke
1:00 PM 73.4 °F 57.2 °F 57% 30.01 in 0.7 mi ENE 3.5 mph - N/A   Smoke
2:00 PM 73.4 °F 57.2 °F 57% 29.98 in 1.1 mi ESE 3.5 mph - N/A   Smoke
2:30 PM 75.2 °F 55.4 °F 50% 29.95 in 1.1 mi ENE 5.8 mph - N/A   Smoke
3:00 PM 77.0 °F 55.4 °F 47% 29.95 in 1.1 mi ENE 5.8 mph - N/A   Smoke
4:00 PM 75.2 °F 53.6 °F 47% 29.95 in 1.2 mi East 5.8 mph - N/A   Smoke
4:30 PM 75.2 °F 53.6 °F 47% 29.95 in 1.4 mi East 3.5 mph - N/A   Smoke
5:00 PM 73.4 °F 53.6 °F 50% 29.95 in 1.4 mi East 3.5 mph - N/A   Smoke
5:30 PM 71.6 °F 57.2 °F 60% 29.95 in 1.2 mi Calm Calm - N/A   Smoke
6:00 PM 69.8 °F 57.2 °F 64% 29.95 in 1.1 mi Calm Calm - N/A   Smoke
7:00 PM 64.4 °F 57.2 °F 77% 29.98 in 0.8 mi Calm Calm - N/A   Mist
7:30 PM 64.4 °F 57.2 °F 77% 29.98 in 0.6 mi Calm Calm - N/A   Mist
8:00 PM 64.4 °F 57.2 °F 77% 29.98 in 0.7 mi Calm Calm - N/A   Mist
8:30 PM 64.4 °F 57.2 °F 77% 29.98 in 0.7 mi Calm Calm - N/A   Mist
9:00 PM 64.4 °F 57.2 °F 77% 30.01 in 0.6 mi Calm Calm - N/A   Mist
10:00 PM 64.4 °F 57.2 °F 77% 30.01 in 0.6 mi Calm Calm - N/A   Mist
10:30 PM 62.6 °F 55.4 °F 77% 30.01 in 0.6 mi East 4.6 mph - N/A   Mist
11:00 PM 62.6 °F 55.4 °F 77% 30.01 in 0.6 mi ESE 4.6 mph - N/A   Mist
11:30 PM 62.6 °F 55.4 °F 77% 30.01 in 0.7 mi ESE 4.6 mph - N/A   Mist